#timestamp,LO_Frequency,Hit,StdDev 
1505077215.6,286046998.5,N,1.1
1505077235.4,286047000.7,N,1.1
1505077255.3,286046998.4,N,1.1
1505077275.1,286047000.9,N,1.1
1505077295.8,286047000.4,N,1.1
1505077315.7,286047000.3,N,1.1
1505077335.5,286047000.4,N,1.0
1505077355.4,286047000.9,N,1.1
1505077375.2,286047000.4,N,1.0
1505077395.0,286047000.0,N,1.0
1505077395.9,286047000.0,N,1.0
1505077415.8,286047000.1,N,1.0
1505077435.6,286047002.8,N,1.0
1505077455.5,286047002.3,N,1.1
1505077475.3,286047000.1,N,1.0
1505077495.1,286047000.0,N,1.0
1505077515.9,286047000.4,N,0.9
1505077535.7,286047002.8,Y,0.0
1505077555.6,286047001.0,P,0.3
1505077575.4,286047000.9,P,0.2
1505077595.2,286047000.6,N,0.2
1505077615.1,286047000.2,N,0.3
1505077616.0,286047000.2,N,0.3
1505077635.8,286047000.6,N,0.3
1505077655.6,286047000.8,N,0.3
1505077675.5,286047000.8,N,0.3
1505077695.3,286047000.6,N,0.3
1505077715.2,286047000.7,N,0.2
1505077735.9,286046998.7,Y,0.0
1505077755.7,286046999.3,P,0.7
1505077775.6,286046996.7,P,1.6
1505077795.4,286046996.8,N,1.7
1505077815.3,286046996.9,N,1.6
1505077835.1,286046996.5,N,1.6
1505077855.9,286046997.3,N,1.5
1505077875.7,286046995.3,Y,0.0
1505077895.5,286046998.2,P,0.2
1505077915.4,286046999.1,P,0.6
1505077935.2,286046998.3,P,0.5
1505077955.1,286046999.2,N,0.6
1505077956.0,286046999.2,N,0.6
1505077975.8,286046997.7,Y,0.0
1505077995.6,286046997.1,P,0.8
1505078015.5,286046997.3,P,0.7
1505078035.3,286046996.6,P,0.7
1505078055.2,286046997.7,Y,0.0
1505078075.9,286046998.9,P,0.7
1505078095.7,286046999.2,N,0.8
1505078115.6,286046998.8,N,0.7
1505078135.4,286046998.9,N,0.6
1505078155.2,286046999.1,N,0.6
1505078175.1,286046999.6,N,0.6
1505078176.0,286046999.6,N,0.6
1505078195.8,286046999.6,N,0.6
1505078215.7,286046996.9,Y,0.0
1505078235.5,286046999.4,P,0.2
1505078255.3,286046999.2,P,0.2
1505078275.2,286046997.8,P,0.6
1505078295.0,286046997.0,Y,0.0
1505078295.9,286046997.0,P,0.9
1505078315.8,286046999.5,N,1.1
1505078335.6,286046999.5,N,1.0
1505078355.4,286046999.1,N,0.9
1505078375.3,286046999.0,N,0.9
1505078395.1,286046999.4,N,0.8
1505078415.9,286047001.2,N,1.1
1505078435.7,286046999.1,N,1.0
1505078455.5,286046999.2,N,1.0
1505078475.4,286046999.5,N,0.9
1505078495.2,286046996.5,Y,0.0
1505078515.1,286046996.8,P,1.2
1505078516.0,286046996.8,N,1.1
1505078535.8,286046996.9,N,1.0
1505078555.7,286046996.8,Y,0.0
1505078575.5,286047000.6,P,1.6
1505078595.3,286047001.1,N,1.6
1505078615.2,286047002.4,N,1.8
1505078635.0,286047002.6,N,1.9
1505078635.9,286047002.6,N,1.8
1505078655.7,286047000.9,N,1.7
1505078675.6,286047000.6,N,1.6
1505078695.4,286046998.1,N,1.8
1505078715.3,286047001.0,N,1.7
1505078735.1,286047000.6,N,1.6
1505078755.8,286046998.2,N,1.7
1505078775.7,286047000.4,N,1.6
1505078795.5,286047001.0,N,1.6
1505078815.4,286047000.7,N,1.5
1505078835.2,286047000.5,N,1.5
1505078855.0,286047000.7,N,1.4
1505078855.9,286047000.7,N,1.4
1505078875.8,286047001.2,N,1.3
1505078895.6,286047001.0,N,1.3
1505078915.5,286047000.7,N,1.3
1505078935.3,286046998.1,N,1.4
1505078955.1,286047000.6,N,1.3
1505078975.9,286046998.2,N,1.4
1505078995.7,286047001.2,N,1.4
1505079015.6,286046998.7,N,1.4
1505079035.4,286046999.0,N,1.4
1505079055.2,286046998.5,N,1.4
1505079075.1,286047001.2,N,1.4
1505079076.0,286047001.2,N,1.4
1505079095.8,286046998.9,N,1.3
1505079115.7,286047000.7,N,1.3
1505079135.5,286046998.6,N,1.3
1505079155.3,286046998.4,N,1.3
1505079175.2,286046998.6,N,1.2
1505079195.0,286046998.5,N,1.2
1505079195.9,286046998.5,N,1.2
1505079215.8,286046998.8,N,1.2
1505079235.6,286046998.6,N,1.2
1505079255.4,286046998.7,N,1.2
1505079275.3,286046998.5,N,1.2
1505079295.1,286046998.1,N,1.2
1505079315.8,286047001.0,N,1.2
1505079335.7,286046998.2,N,1.2
1505079355.5,286047001.0,N,1.2
1505079375.4,286047000.7,N,1.2
1505079395.2,286047000.8,N,1.2
1505079415.0,286046999.1,N,1.2
1505079415.9,286046999.1,N,1.2
1505079435.8,286046999.4,N,1.1
1505079455.6,286046998.4,N,1.1
1505079475.5,286046998.8,N,1.1
1505079495.3,286046998.6,N,1.1
1505079515.1,286046996.5,Y,0.0
1505079535.9,286046999.1,P,0.1
1505079555.7,286046999.1,P,0.1
1505079575.6,286046998.7,P,0.2
1505079595.4,286046998.3,Y,0.0
1505079615.2,286047000.6,P,0.8
1505079635.1,286047000.5,N,0.7
1505079636.0,286047000.5,N,0.6
1505079655.8,286047000.5,N,0.6
1505079675.7,286046998.2,Y,0.0
1505079695.5,286046999.3,P,0.5
1505079715.3,286046999.4,N,0.4
1505079735.2,286046999.0,N,0.5
1505079755.0,286046996.5,Y,0.0
1505079755.9,286046996.5,P,1.5
1505079775.8,286046998.9,N,1.3
1505079795.6,286046998.5,N,1.1
1505079815.4,286046998.6,N,1.0
1505079835.3,286046998.7,N,0.9
1505079855.1,286046998.9,N,0.9
1505079875.9,286046998.3,N,0.8
1505079895.7,286046999.3,N,0.8
1505079915.5,286047001.1,N,1.1
1505079935.4,286047001.1,N,1.2
1505079955.2,286046998.7,N,1.2
1505079975.0,286047000.4,N,1.2
1505079976.0,286047000.4,N,1.2
1505079995.8,286047000.9,N,1.2
1505080015.6,286046999.8,N,1.2
1505080035.5,286046999.8,N,1.2
1505080055.3,286047002.3,N,1.3
1505080075.2,286047002.4,N,1.4
1505080095.9,286047000.5,N,1.4
1505080115.7,286046999.9,N,1.4
1505080135.6,286047001.5,N,1.4
1505080155.4,286047001.9,N,1.4
1505080175.2,286047002.2,N,1.5
1505080195.1,286047002.3,N,1.5
1505080196.0,286047002.3,N,1.5
1505080215.8,286047004.4,N,1.7
1505080235.7,286047004.0,N,1.8
1505080255.5,286047004.4,N,1.9
1505080275.3,286047003.7,N,2.0
1505080295.2,286047004.1,N,2.0
1505080315.0,286047001.5,N,1.9
1505080315.9,286047001.5,N,1.8
1505080335.8,286047001.3,N,1.8
1505080355.6,286047004.0,N,1.8
1505080375.4,286047003.7,N,1.7
1505080395.3,286047003.4,N,1.7
1505080415.1,286047003.0,N,1.6
1505080435.9,286047006.0,Y,0.0
1505080455.7,286047002.2,P,0.2
1505080475.5,286047002.2,P,0.2
1505080495.4,286047002.1,P,0.1
1505080515.2,286047001.5,Y,0.0
1505080535.0,286047000.5,P,0.8
1505080535.9,286047000.5,N,0.7
1505080555.8,286047000.9,N,0.7
1505080575.8,286047002.8,Y,0.0
1505080595.6,286047000.8,P,0.1
1505080615.5,286047000.5,P,0.2
1505080635.3,286046998.5,P,1.0
1505080655.1,286046998.5,N,1.1
1505080675.9,286046998.5,N,1.1
1505080695.7,286047001.1,N,1.2
1505080715.6,286046998.9,N,1.1
1505080735.4,286046998.8,N,1.1
1505080755.2,286047001.0,N,1.1
1505080775.1,286047001.1,N,1.2
1505080776.0,286047001.1,N,1.2
1505080795.8,286047001.1,N,1.1
